This is the latest recevied weather packets stored in our database for station/object SR7U-1. If no packets are shown the sender has not sent any weather packets the latest 10 day(s).
| Time | Temp. | Humidity | Pressure | Rain* | Wind** | Luminosity | Snow |
|---|---|---|---|---|---|---|---|
| 1777844282 | 13.89° C | 50% | 1015.6 hPa | - | - | - | - |
| 1777843385 | 16.67° C | 41% | 1015.4 hPa | - | - | - | - |
| 1777842490 | 17.22° C | 39% | 1015.3 hPa | - | - | - | - |
| 1777841660 | 17.22° C | 38% | 1015.3 hPa | - | - | - | - |
| 1777840820 | 16.67° C | 37% | 1015.2 hPa | - | - | - | - |
| 1777839970 | 17.78° C | 37% | 1015.1 hPa | - | - | - | - |
| 1777839182 | 18.33° C | 35% | 1015.2 hPa | - | - | - | - |
| 1777838305 | 18.33° C | 35% | 1015.2 hPa | - | - | - | - |
| 1777837510 | 19.44° C | 33% | 1015.1 hPa | - | - | - | - |
| 1777836760 | 19.44° C | 33% | 1015.2 hPa | - | - | - | - |
| 1777835889 | 20° C | 32% | 1015.2 hPa | - | - | - | - |
| 1777835075 | 20° C | 31% | 1015.1 hPa | - | - | - | - |
| 1777834338 | 20° C | 31% | 1015.2 hPa | - | - | - | - |
| 1777833617 | 20° C | 31% | 1015.1 hPa | - | - | - | - |
| 1777832785 | 20.56° C | 32% | 1015 hPa | - | - | - | - |
| 1777831935 | 21.11° C | 31% | 1015 hPa | - | - | - | - |
| 1777831105 | 20.56° C | 31% | 1014.9 hPa | - | - | - | - |
| 1777830375 | 21.11° C | 30% | 1014.8 hPa | - | - | - | - |
| 1777829555 | 21.67° C | 29% | 1015 hPa | - | - | - | - |
| 1777828747 | 22.22° C | 28% | 1014.9 hPa | - | - | - | - |
| 1777827870 | 22.78° C | 28% | 1014.9 hPa | - | - | - | - |
| 1777827014 | 23.33° C | 28% | 1015 hPa | - | - | - | - |
| 1777826230 | 23.33° C | 28% | 1015.1 hPa | - | - | - | - |
| 1777825433 | 23.33° C | 27% | 1015.1 hPa | - | - | - | - |
| 1777824591 | 24.44° C | 26% | 1015.1 hPa | - | - | - | - |
* Rain since midnight (hover to see other rain measurements)
** Current wind speed in m/s (hover to see current wind gust speed)